Total_Precipitation_Accumulation
0.10 0.12 0.19 0.37 0.49 0.40 0.29 0.26 0.34 0.35 0.35 0.38 0.46 0.56 0.54 0.48 0.43 0.41 0.42 0.39 0.38 0.38 0.36 0.35 0.35 0.37 0.46 0.59 0.75 0.94 1.17 1.17 1.02 0.94 0.86 0.72 0.66 0.64 0.61 0.64 0.61 0.63 0.73 0.83
0.04 0.05 0.09 0.18 0.22 0.17 0.10 0.13 0.24 0.30 0.36 0.41 0.47 0.54 0.51 0.43 0.35 0.28 0.26 0.26 0.26 0.24 0.22 0.17 0.16 0.18 0.20 0.29 0.46 0.64 0.81 0.90 0.87 0.78 0.67 0.63 0.62 0.60 0.56 0.55 0.51 0.50 0.54 0.61
0.04 0.04 0.06 0.13 0.13 0.13 0.16 0.15 0.16 0.26 0.38 0.46 0.58 0.76 0.67 0.50 0.41 0.28 0.21 0.20 0.19 0.20 0.20 0.18 0.17 0.16 0.17 0.21 0.27 0.38 0.51 0.62 0.62 0.56 0.49 0.45 0.49 0.49 0.46 0.41 0.42 0.39 0.39 0.39
0.09 0.11 0.22 0.25 0.19 0.27 0.34 0.26 0.22 0.29 0.37 0.50 0.83 1.03 0.66 0.43 0.38 0.32 0.21 0.18 0.18 0.18 0.16 0.15 0.14 0.13 0.14 0.16 0.19 0.21 0.26 0.31 0.32 0.33 0.33 0.33 0.35 0.35 0.34 0.33 0.31 0.31 0.38 0.45
0.13 0.17 0.41 0.36 0.19 0.31 0.36 0.31 0.24 0.32 0.37 0.40 0.46 0.41 0.25 0.15 0.16 0.18 0.13 0.10 0.09 0.08 0.07 0.05 0.05 0.05 0.06 0.06 0.08 0.08 0.09 0.11 0.13 0.16 0.19 0.22 0.22 0.24 0.31 0.34 0.35 0.38 0.49 0.56
0.09 0.12 0.26 0.27 0.10 0.17 0.26 0.31 0.13 0.14 0.16 0.11 0.07 0.08 0.11 0.10 0.07 0.05 0.03 0.02 0.02 0.02 0.02 0.01 0.01 0.01 0.01 0.01 0.02 0.03 0.02 0.03 0.04 0.05 0.06 0.09 0.13 0.16 0.21 0.25 0.32 0.39 0.41 0.39
0.04 0.06 0.08 0.05 0.05 0.11 0.25 0.28 0.07 0.04 0.03 0.01 0.01 0.01 0.05 0.10 0.06 0.03 0.01 0.00 0.00 0.00 0.00 0.00 0.00 0.00 0.00 0.01 0.01 0.02 0.03 0.04 0.04 0.04 0.03 0.04 0.05 0.06 0.10 0.14 0.17 0.19 0.21 0.25
0.02 0.03 0.04 0.02 0.05 0.11 0.11 0.05 0.02 0.01 0.01 0.00 0.00 0.00 0.02 0.05 0.03 0.02 0.01 0.00 0.00 0.01 0.00 0.00 0.00 0.00 0.00 0.00 0.01 0.01 0.02 0.04 0.04 0.03 0.03 0.03 0.03 0.04 0.04 0.06 0.10 0.13 0.16 0.21
0.02 0.02 0.02 0.02 0.03 0.03 0.03 0.02 0.00 0.00 0.00 0.01 0.00 0.00 0.00 0.01 0.02 0.01 0.00 0.00 0.00 0.01 0.01 0.00 0.01 0.01 0.01 0.01 0.01 0.01 0.02 0.04 0.04 0.04 0.03 0.02 0.03 0.03 0.03 0.04 0.07 0.10 0.14 0.21
0.01 0.01 0.01 0.01 0.01 0.01 0.01 0.01 0.00 0.00 0.01 0.01 0.00 0.00 0.00 0.00 0.01 0.01 0.00 0.00 0.00 0.00 0.01 0.01 0.01 0.01 0.01 0.01 0.02 0.02 0.02 0.02 0.03 0.04 0.04 0.04 0.04 0.04 0.04 0.04 0.07 0.11 0.18 0.24
0.01 0.01 0.00 0.01 0.01 0.00 0.01 0.01 0.00 0.00 0.00 0.00 0.00 0.00 0.00 0.00 0.01 0.01 0.00 0.00 0.00 0.00 0.01 0.01 0.01 0.01 0.01 0.01 0.01 0.01 0.01 0.02 0.03 0.04 0.05 0.04 0.03 0.04 0.05 0.05 0.07 0.13 0.17 0.20
0.01 0.01 0.00 0.00 0.00 0.00 0.01 0.00 0.00 0.00 0.00 0.00 0.00 0.00 0.00 0.00 0.00 0.00 0.00 0.00 0.00 0.00 0.00 0.01 0.01 0.01 0.01 0.01 0.01 0.01 0.01 0.01 0.02 0.03 0.03 0.04 0.05 0.04 0.04 0.04 0.05 0.06 0.08 0.11
0.01 0.01 0.01 0.00 0.00 0.01 0.02 0.01 0.00 0.00 0.00 0.00 0.00 0.00 0.00 0.00 0.00 0.00 0.00 0.00 0.00 0.00 0.00 0.01 0.01 0.01 0.01 0.02 0.02 0.01 0.01 0.01 0.01 0.02 0.02 0.03 0.06 0.10 0.11 0.08 0.04 0.03 0.04 0.08
0.01 0.00 0.01 0.01 0.00 0.01 0.01 0.00 0.00 0.00 0.00 0.00 0.00 0.00 0.00 0.00 0.00 0.00 0.00 0.00 0.00 0.00 0.00 0.01 0.01 0.01 0.01 0.01 0.01 0.01 0.02 0.01 0.02 0.03 0.03 0.03 0.04 0.10 0.21 0.26 0.21 0.10 0.06 0.07
0.01 0.00 0.00 0.00 0.00 0.00 0.00 0.00 0.00 0.00 0.00 0.00 0.00 0.00 0.00 0.00 0.00 0.00 0.00 0.00 0.00 0.00 0.00 0.01 0.01 0.01 0.01 0.01 0.01 0.01 0.02 0.02 0.05 0.07 0.05 0.04 0.05 0.13 0.19 0.12 0.11 0.13 0.12 0.09
0.00 0.00 0.00 0.00 0.00 0.00 0.01 0.01 0.00 0.00 0.00 0.00 0.00 0.00 0.00 0.00 0.00 0.00 0.00 0.00 0.00 0.00 0.00 0.00 0.01 0.00 0.00 0.00 0.00 0.01 0.01 0.02 0.04 0.09 0.09 0.05 0.07 0.11 0.10 0.09 0.11 0.13 0.14 0.13
0.00 0.00 0.00 0.00 0.01 0.01 0.01 0.01 0.01 0.00 0.00 0.00 0.00 0.00 0.00 0.00 0.00 0.00 0.00 0.00 0.00 0.00 0.00 0.00 0.00 0.00 0.00 0.00 0.00 0.00 0.01 0.01 0.02 0.05 0.08 0.06 0.06 0.08 0.07 0.08 0.10 0.12 0.12 0.12
0.01 0.01 0.01 0.01 0.01 0.00 0.00 0.00 0.00 0.00 0.00 0.00 0.00 0.00 0.00 0.00 0.00 0.00 0.00 0.00 0.00 0.00 0.00 0.00 0.00 0.00 0.00 0.00 0.01 0.01 0.01 0.02 0.02 0.05 0.06 0.04 0.04 0.07 0.09 0.08 0.08 0.10 0.12 0.12
0.02 0.01 0.01 0.01 0.01 0.00 0.00 0.00 0.00 0.00 0.00 0.00 0.00 0.00 0.00 0.00 0.00 0.00 0.00 0.00 0.00 0.00 0.00 0.00 0.01 0.00 0.00 0.01 0.02 0.02 0.03 0.03 0.04 0.05 0.07 0.05 0.05 0.06 0.10 0.12 0.11 0.12 0.14 0.13
0.02 0.02 0.01 0.01 0.00 0.00 0.00 0.00 0.00 0.00 0.00 0.00 0.00 0.00 0.00 0.00 0.00 0.00 0.01 0.00 0.00 0.00 0.00 0.01 0.01 0.01 0.01 0.01 0.02 0.03 0.03 0.03 0.04 0.06 0.07 0.07 0.07 0.08 0.09 0.10 0.13 0.16 0.17 0.16
0.03 0.02 0.02 0.01 0.01 0.01 0.00 0.00 0.00 0.00 0.00 0.00 0.00 0.00 0.00 0.00 0.01 0.01 0.01 0.01 0.01 0.01 0.02 0.02 0.02 0.02 0.03 0.04 0.05 0.05 0.05 0.05 0.06 0.08 0.10 0.11 0.11 0.12 0.12 0.13 0.16 0.20 0.18 0.18
0.02 0.02 0.02 0.01 0.01 0.01 0.00 0.01 0.01 0.01 0.00 0.00 0.00 0.01 0.01 0.01 0.01 0.02 0.02 0.02 0.02 0.04 0.04 0.04 0.04 0.06 0.08 0.11 0.08 0.07 0.08 0.08 0.10 0.11 0.13 0.15 0.16 0.17 0.17 0.18 0.19 0.19 0.19 0.20
0.02 0.01 0.01 0.01 0.01 0.00 0.01 0.01 0.01 0.01 0.01 0.01 0.01 0.01 0.01 0.01 0.01 0.02 0.02 0.03 0.04 0.06 0.07 0.07 0.08 0.11 0.14 0.11 0.09 0.09 0.10 0.11 0.13 0.13 0.16 0.20 0.22 0.23 0.24 0.25 0.24 0.22 0.22 0.24
0.02 0.02 0.02 0.02 0.01 0.01 0.01 0.01 0.01 0.01 0.01 0.01 0.01 0.01 0.02 0.03 0.03 0.03 0.03 0.04 0.05 0.07 0.08 0.09 0.11 0.15 0.17 0.12 0.11 0.11 0.12 0.13 0.14 0.15 0.19 0.23 0.26 0.26 0.26 0.26 0.25 0.25 0.25 0.26
0.03 0.03 0.03 0.03 0.03 0.03 0.02 0.02 0.02 0.02 0.02 0.02 0.03 0.03 0.04 0.04 0.05 0.06 0.06 0.07 0.08 0.09 0.10 0.11 0.14 0.16 0.14 0.14 0.15 0.15 0.16 0.17 0.20 0.21 0.22 0.23 0.26 0.27 0.28 0.28 0.30 0.31 0.30 0.30
0.04 0.05 0.05 0.05 0.05 0.05 0.04 0.04 0.04 0.04 0.05 0.05 0.06 0.07 0.07 0.07 0.07 0.07 0.09 0.11 0.13 0.14 0.15 0.16 0.19 0.20 0.19 0.19 0.20 0.21 0.21 0.22 0.24 0.25 0.25 0.27 0.28 0.29 0.30 0.30 0.31 0.33 0.35 0.36
0.08 0.07 0.07 0.08 0.08 0.08 0.08 0.08 0.08 0.08 0.08 0.08 0.08 0.09 0.10 0.11 0.12 0.11 0.12 0.14 0.16 0.19 0.19 0.20 0.22 0.25 0.27 0.28 0.29 0.28 0.26 0.26 0.26 0.27 0.29 0.31 0.32 0.33 0.33 0.33 0.33 0.34 0.36 0.37